Terminal Aerodrome Forecast
Issued by NWS Melbourne, FL

Home | Current Version | Previous Version | Text Only | Print | Product List | Glossary On
Versions: 1 2 3 4 5 6 7 8 9 10 11 12 13 14 15 16 17 18 19 20 21 22 23 24 25 26 27 28 29 30 31 32 33 34 35 36 37 38 39 40 41 42 43 44 45 46 47 48 49 50
000
FTUS42 KMLB 171722
TAFMCO
TAF
KMCO 171722Z 1718/1824 14006KT P6SM VCTS SCT040CB SCT250
      TEMPO 1719/1722 3SM TSRA BKN040CB
     FM180000 14004KT P6SM FEW045 SCT110 BKN250
     FM181400 18004KT P6SM SCT030 SCT250
     FM181900 15006KT P6SM VCTS SCT040CB SCT250=

USA.gov is the U.S. government's official web portal to all federal, state and local government web resources and services.